DTUSAT-2
1 40030U 14033W 23110.36919480 .00006880 00000-0 67427-3 0 9996
2 40030 97.9642 50.2053 0012537 118.2003 242.0483 14.92521129479373
EO-80
1 40032U 14033Y 23110.34509069 .00006164 00000-0 60478-3 0 9998
2 40032 97.9647 50.1983 0012300 118.9530 241.2923 14.92524593479346
HODOYOSHI-1
1 40299U 14070B 23110.88102010 .00016786 00000-0 53738-3 0 9990
2 40299 97.1995 175.0714 0012563 120.9182 326.7793 15.32383815470031
FIREBIRD FU3
1 40377U 15003B 23110.36344214 .00132488 00000-0 16419-2 0 9993
2 40377 99.0768 52.8045 0058282 55.7335 304.9416 15.57535849455608
FIREBIRD FU4
1 40378U 15003C 23110.43207992 .00130103 00000-0 16036-2 0 9990
2 40378 99.0794 53.2018 0058217 54.6477 306.0195 15.57688687455624
GRIFEX
1 40379U 15003D 23110.36527554 .00039347 00000-0 96170-3 0 9998
2 40379 99.0798 33.4114 0091054 109.7278 251.3811 15.36446937454491
XW-2A
1 40903U 15049E 23110.71773397 .02544850 22897-5 81558-3 0 9997
2 40903 97.0955 179.6363 0009562 249.6724 210.2587 16.26176883427369
XW-2C
1 40906U 15049H 23110.85228407 .00019129 00000-0 76625-3 0 9992
2 40906 97.4962 117.8512 0012370 14.8166 68.8202 15.25016638419650
XW-2D
1 40907U 15049J 23110.87346595 .00022704 00000-0 86501-3 0 9991
2 40907 97.4941 118.2625 0011000 9.6693 75.0594 15.26667873419731
LILACSAT-2
1 40908U 15049K 23110.87694963 .00009897 00000-0 47447-3 0 9991
2 40908 97.5260 114.1220 0015165 36.4941 47.6862 15.19009534419091
XW-2E
1 40909U 15049L 23110.84438951 .00040784 00000-0 11953-2 0 9994
2 40909 97.4578 123.9579 0007530 341.6896 138.6312 15.35061140420334
XW-2F
1 40910U 15049M 23110.88345088 .00040516 00000-0 12101-2 0 9997
2 40910 97.4663 123.2188 0008508 342.2681 136.5986 15.34456912420096
XW-2B
1 40911U 15049N 23110.86790690 .00022307 00000-0 85511-3 0 9993
2 40911 97.4921 118.7292 0011173 11.2820 108.8000 15.26466803419615
DCBB
1 40912U 15049P 23110.72647765 .00049333 00000-0 12467-2 0 9990
2 40912 97.4231 127.5428 0006738 291.2228 193.0891 15.39621457420755
IO-86
1 40931U 15052B 23110.50027555 .00001711 00000-0 14727-3 0 9990
2 40931 5.9978 138.3586 0012601 199.9820 159.9840 14.77166985408810
ATHENOXAT-1
1 41168U 15077C 23110.23855223 .00130695 00000-0 25638-2 0 9997
2 41168 14.9852 311.9399 0003434 324.1585 181.7952 15.45433519407305
ChubuSat-2
1 41338U 16012B 23110.52683458 .00005581 00000-0 39238-3 0 9994
2 41338 31.0027 226.3256 0012260 324.0287 35.9524 15.03547412393697
ChubuSat-3
1 41339U 16012C 23110.73838931 .00006050 00000-0 42702-3 0 9998
2 41339 31.0112 222.0009 0012301 332.0104 149.7551 15.03449065393728
Horyu-4
1 41340U 16012D 23110.51963847 .00009463 00000-0 60859-3 0 9995
2 41340 31.0035 194.0237 0011439 25.9992 334.1219 15.07078008394012
e-st@r-II
1 41459U 16025D 23110.47005800 .00034599 00000-0 10943-2 0 9997
2 41459 98.1913 306.0614 0112936 299.3762 59.6237 15.26620650384084
AAUSAT4
1 41460U 16025E 23110.60203970 .00102052 00000-0 18953-2 0 9991
2 41460 98.1677 316.9130 0074610 258.4446 187.4748 15.45485925384843
LO-87
1 41557U 16033B 23110.88189431 .00070785 00000-0 11377-2 0 9992
2 41557 97.3848 216.8030 0005821 341.5073 159.1948 15.52756838384712
NuSat2
1 41558U 16033C 23110.91501751 .00080053 00000-0 11675-2 0 9990
2 41558 97.4111 224.4426 0005972 325.8058 157.1622 15.55400789385044
Lapan A3
1 41603U 16040E 23110.76242448 .00003945 00000-0 17466-3 0 9997
2 41603 97.1726 138.9753 0013462 152.1123 328.1861 15.22124452378752
Pratham
1 41783U 16059A 23110.53935028 .00001239 00000-0 24433-3 0 9990
2 41783 97.8749 144.2056 0031626 283.5798 76.1883 14.63853072350540
TY-1
1 41844U 16066D 23110.91005969 .00065485 00000-0 12626-2 0 9993
2 41844 97.3738 128.8604 0006494 253.3196 223.8136 15.47602196358801
CAS-2T
1 41847U 16066G 23110.27435090 .00002044 00000-0 31207-3 0 9996
2 41847 98.5076 179.0937 0360509 11.3811 349.5261 14.39548150338470
EO-88
1 42017U 17008BX 23110.41612690 .00125061 00000-0 14214-2 0 9995
2 42017 97.2173 179.9401 0004629 207.1684 152.9333 15.61894664344406
CAS-4B
1 42759U 17034B 23110.40163149 .00012251 00000-0 63035-3 0 9998
2 42759 43.0171 76.6689 0009520 81.6858 56.3167 15.16349080322865
CAS-4A
1 42761U 17034D 23110.35113993 .00014120 00000-0 72279-3 0 9994
2 42761 43.0159 75.5020 0009805 88.5111 39.4920 15.16430803322868
NIUSat
1 42766U 17036B 23110.02650259 .00032926 00000-0 92725-3 0 9998
2 42766 97.1635 142.7529 0008697 318.1193 41.9386 15.36347863323672
Aalto 1
1 42775U 17036L 23110.03326048 .00027054 00000-0 83745-3 0 9993
2 42775 97.1585 141.8244 0008630 321.3604 38.7020 15.33404307323606
URSA MAIOR
1 42776U 17036M 23110.03157941 .00030480 00000-0 89820-3 0 9995
2 42776 97.1595 143.0029 0007949 316.9542 43.1079 15.34945236323668
Max Valier Sat
1 42778U 17036P 23110.04882105 .00031483 00000-0 89262-3 0 9999
2 42778 97.1631 146.3509 0006378 318.1083 41.9673 15.36162698323794
Pegasus
1 42784U 17036V 23110.05317967 .00045454 00000-0 10395-2 0 9999
2 42784 97.1544 148.3492 0005189 306.4181 53.6588 15.42674028324007
NUDATSat
1 42787U 17036Y 23110.53822434 .00282553 00000-0 21547-2 0 9999
2 42787 97.1484 157.5851 0004085 228.7091 131.3824 15.71376257324477
SUCHAI 1
1 42788U 17036Z 23110.06456195 .00081053 00000-0 14625-2 0 9996
2 42788 97.1519 151.4241 0003837 282.8490 77.2333 15.49459516324277
SKCUBE
1 42789U 17036AA 23110.55429976 .00049390 00000-0 10093-2 0 9991
2 42789 97.1530 150.6969 0004374 291.4745 68.6038 15.45992867324199
VZLUSAT 1
1 42790U 17036AB 23110.12570800 .00242883 00000-0 20359-2 0 9997
2 42790 97.1468 156.9209 0004683 231.1356 128.9489 15.69200001324546
VENTA 1
1 42791U 17036AC 23110.33965597 .00045143 00000-0 10254-2 0 9995
2 42791 97.1554 149.7860 0004509 300.4272 59.6530 15.42882333324104
Robusta 1B
1 42792U 17036AD 23110.10873741 .00058154 00000-0 10928-2 0 9994
2 42792 97.1517 151.2721 0003777 285.7073 74.3762 15.48390682324207
D-SAT
1 42794U 17036AF 23110.45790658 .00006126 00000-0 48961-3 0 9990
2 42794 97.4637 105.2333 0119262 135.2977 225.7934 14.95073780317306
TechnoSat
1 42829U 17042E 23110.50298831 .00004340 00000-0 41833-3 0 9995
2 42829 97.3930 311.3939 0014947 63.1368 297.1378 14.93315516313887
AO-91
1 43017U 17073E 23110.46692360 .00007116 00000-0 50766-3 0 9998
2 43017 97.6382 357.0958 0234258 259.7201 97.7528 14.85329666292617
PICSAT
1 43132U 18004X 23110.29416847 .00065906 00000-0 11572-2 0 9998
2 43132 97.3341 192.1619 0003863 322.9118 37.1866 15.50297978293555
AO-92
1 43137U 18004AC 23110.45851233 .00038228 00000-0 89293-3 0 9996
2 43137 97.3313 189.1879 0004762 356.0369 4.0839 15.42079915293405
TianYi 2
1 43155U 18008A 23110.91830242 .00027074 00000-0 11333-2 0 9994
2 43155 97.3055 164.8790 0014911 147.7866 24.3975 15.23426552289924
Zhou Enlai
1 43156U 18008B 23110.86978647 .00030094 00000-0 12471-2 0 9991
2 43156 97.3101 164.8718 0012616 147.1920 328.6198 15.23773445289846
TianYi 6
1 43158U 18008D 23110.63374667 .00022825 00000-0 10227-2 0 9990
2 43158 97.3088 161.8263 0012198 151.9574 332.4148 15.21178869289662
S-Net D
1 43186U 18014G 23110.55801334 .00006181 00000-0 50007-3 0 9993
2 43186 97.6446 15.4048 0012259 3.9675 356.1643 15.00062464284911
S-Net B
1 43187U 18014H 23110.55876291 .00006090 00000-0 49284-3 0 9992
2 43187 97.6444 15.3413 0012317 3.0545 357.0751 15.00057681284912
S-Net A
1 43188U 18014J 23110.29216055 .00006306 00000-0 51017-3 0 9997
2 43188 97.6450 15.1626 0012355 3.9410 356.1908 15.00056866284879
